Find Kosmos-1703

NORAD ID: 16262 Int'l Des: 1985-108 Owner: GRU Country: SU operational
LEOCIRCULARPOLAR

Current View

Loading 3D Globe...

About Kosmos-1703

Description loading...

Upcoming Passes

Passes for default location (London). Set your location on the main map for personalized predictions.

Altitude History

Loading altitude history...

Two-Line Element Set

1 16262U 85108A 26151.18558243 .00034332 00000-0 52321-3 0 9991
2 16262 82.4584 234.9808 0005288 67.9596 292.2218 15.54303426214825
Epoch: May 31, 2026 • Age: 7 hours

Current Status

Altitude 433.5 km
Velocity 7.65 km/s
Sub-Earth Point -68.74°S, 9.86°E
Launch Date Nov 22, 1985
Age 40.5 years
Type other

Technical Details

Classification Payload
Mass 1750.00 kg
Dry Mass 1750.00 kg
Total Mass 1750.00 kg
Length 3.20 m
Diameter 1.30 m
Span 13.10 m
Shape Cyl + Ant
Manufacturer YUZH
Bus Type Tselina-D
Phase Status In Orbit
Owner/State GRU/SU

Most Searched